This demonstration page uses our WeatherBlox Daily Observations layout. Learn more.

Left ArrowRight Arrow

39.01783, -85.05884

Hourly Observations for September 27, 2022

Temp ( °F °C ) Dew Point ( °F °C ) Humidity (%) Winds ( mph kmh ) Pressure ( in mb ) Visibility ( mi km ) Precip ( " mm )
12:52 am 00:52 Mostly Clear 51 10.6 43 6.1 74 74 W 8 13 29.95 1014 10 16 0.00 0.00
1:52 am 01:52 Clear 51 10.6 43 6.1 74 74 W 9 15 29.95 1014 10 16 0.00 0.00
2:52 am 02:52 Partly Cloudy 50 10 43 6.1 77 77 W 9 15 29.95 1014 10 16 0.00 0.00
3:52 am 03:52 Mostly Clear 47 8.3 42 5.6 83 83 Calm 29.94 1014 10 16 0.00 0.00
4:52 am 04:52 Mostly Clear 46 7.8 41 5 82 82 W 6 9 29.95 1014 10 16 0.00 0.00
5:52 am 05:52 Mostly Cloudy 46 7.8 42 5.6 86 86 Calm 29.96 1015 10 16 0.00 0.00
6:52 am 06:52 Clear 44 6.7 41 5 89 89 Calm 29.97 1015 10 16 0.00 0.00
7:52 am 07:52 Mostly Sunny 45 7.2 41 5 86 86 W 7 11 30.00 1016 10 16 0.00 0.00
8:52 am 08:52 Mostly Sunny 49 9.4 43 6.1 80 80 W 8 13 30.01 1016 10 16 0.00 0.00
9:52 am 09:52 Mostly Sunny 53 11.7 44 6.7 71 71 W 10 17 30.02 1017 10 16 0.00 0.00
10:52 am 10:52 Mostly Sunny 58 14.4 44 6.7 60 60 W 13 20 30.03 1017 10 16 0.00 0.00
11:52 am 11:52 Mostly Cloudy 60 15.6 40 4.4 47 47 WNW 18 30 30.04 1017 10 16 0.00 0.00
12:52 pm 12:52 Mostly Cloudy 61 16.1 37 2.8 41 41 WNW 21 33 30.05 1018 10 16 0.00 0.00
1:52 pm 13:52 Mostly Cloudy 66 18.9 38 3.3 35 35 W 14 22 30.05 1018 10 16 0.00 0.00
2:52 pm 14:52 Partly Cloudy 64 17.8 37 2.8 37 37 WNW 14 22 30.05 1018 10 16 0.00 0.00
3:52 pm 15:52 Partly Cloudy 65 18.3 36 2.2 34 34 WNW 14 22 30.05 1018 10 16 0.00 0.00
4:52 pm 16:52 Mostly Cloudy 64 17.8 34 1.1 32 32 WNW 20 31 30.06 1018 10 16 0.00 0.00
5:52 pm 17:52 Mostly Cloudy 63 17.2 36 2.2 36 36 NNW 14 22 30.08 1019 10 16 0.00 0.00
6:52 pm 18:52 Partly Cloudy 61 16.1 36 2.2 39 39 NW 12 19 30.10 1019 10 16 0.00 0.00
7:52 pm 19:52 Partly Cloudy 57 13.9 37 2.8 47 47 NNW 7 11 30.12 1020 10 16 0.00 0.00
8:52 pm 20:52 Mostly Clear 56 13.3 38 3.3 51 51 NW 6 9 30.14 1021 10 16 0.00 0.00
9:52 pm 21:52 Clear 54 12.2 38 3.3 54 54 NNW 10 17 30.16 1021 10 16 0.00 0.00
10:52 pm 22:52 Clear 51 10.6 38 3.3 61 61 NNW 9 15 30.19 1022 10 16 0.00 0.00
11:52 pm 23:52 Clear 50 10 38 3.3 63 63 NNW 8 13 30.21 1023 10 16 0.00 0.00

Powered by AerisWeather